QPF
0.00 0.00 0.00 0.00 0.01 0.01 0.02 0.04 0.05 0.06 0.05 0.05 0.06 0.07 0.06 0.05 0.05 0.07 0.07 0.07 0.06 0.05 0.04 0.05 0.06 0.06 0.07 0.06 0.05 0.05 0.05 0.04 0.03 0.03 0.03 0.03 0.02 0.02 0.02 0.03 0.03 0.02 0.02
0.01 0.00 0.00 0.00 0.01 0.01 0.02 0.03 0.05 0.07 0.07 0.08 0.08 0.07 0.07 0.06 0.06 0.08 0.07 0.06 0.05 0.05 0.05 0.06 0.06 0.06 0.06 0.05 0.05 0.05 0.04 0.04 0.03 0.03 0.04 0.05 0.05 0.03 0.02 0.02 0.01 0.02 0.02
0.00 0.00 0.00 0.00 0.01 0.02 0.03 0.04 0.06 0.08 0.10 0.11 0.10 0.08 0.07 0.06 0.05 0.07 0.06 0.04 0.06 0.06 0.05 0.05 0.06 0.08 0.08 0.08 0.07 0.06 0.06 0.05 0.05 0.04 0.05 0.06 0.06 0.04 0.02 0.01 0.01 0.02 0.03
0.00 0.00 0.01 0.01 0.01 0.02 0.02 0.03 0.04 0.05 0.06 0.07 0.07 0.07 0.07 0.08 0.06 0.05 0.05 0.04 0.03 0.04 0.04 0.04 0.04 0.06 0.09 0.11 0.10 0.08 0.07 0.06 0.05 0.05 0.05 0.06 0.05 0.04 0.03 0.02 0.01 0.01 0.02
0.01 0.01 0.01 0.01 0.01 0.01 0.01 0.01 0.03 0.04 0.04 0.04 0.06 0.07 0.07 0.07 0.07 0.06 0.04 0.05 0.04 0.03 0.03 0.03 0.04 0.05 0.06 0.07 0.08 0.07 0.06 0.06 0.05 0.06 0.06 0.04 0.04 0.04 0.03 0.02 0.02 0.02 0.02
0.00 0.00 0.00 0.00 0.00 0.01 0.01 0.02 0.03 0.06 0.05 0.03 0.03 0.05 0.05 0.06 0.06 0.04 0.04 0.05 0.04 0.03 0.03 0.03 0.04 0.04 0.04 0.04 0.04 0.04 0.03 0.03 0.03 0.04 0.04 0.04 0.04 0.04 0.04 0.03 0.03 0.04 0.03
0.00 0.01 0.01 0.00 0.00 0.00 0.01 0.02 0.03 0.06 0.05 0.03 0.02 0.03 0.04 0.04 0.03 0.04 0.04 0.04 0.04 0.03 0.03 0.03 0.03 0.04 0.04 0.03 0.03 0.03 0.03 0.03 0.03 0.03 0.03 0.03 0.03 0.04 0.04 0.05 0.04 0.03 0.03
0.00 0.01 0.00 0.00 0.00 0.01 0.01 0.02 0.02 0.03 0.04 0.03 0.02 0.02 0.04 0.03 0.02 0.04 0.03 0.03 0.02 0.02 0.03 0.03 0.02 0.03 0.03 0.02 0.02 0.03 0.02 0.02 0.03 0.02 0.03 0.04 0.03 0.03 0.04 0.05 0.05 0.04 0.03
0.00 0.01 0.00 0.01 0.01 0.01 0.02 0.02 0.02 0.03 0.04 0.04 0.03 0.02 0.03 0.03 0.03 0.03 0.02 0.01 0.01 0.01 0.02 0.02 0.02 0.02 0.02 0.02 0.02 0.02 0.01 0.02 0.02 0.02 0.02 0.02 0.02 0.03 0.04 0.05 0.05 0.06 0.06
0.00 0.01 0.01 0.01 0.01 0.01 0.02 0.02 0.02 0.04 0.05 0.05 0.04 0.03 0.03 0.03 0.04 0.04 0.02 0.01 0.01 0.01 0.02 0.03 0.02 0.03 0.02 0.02 0.02 0.01 0.02 0.02 0.02 0.01 0.02 0.02 0.02 0.02 0.03 0.03 0.04 0.06 0.07
0.01 0.00 0.01 0.01 0.01 0.02 0.02 0.03 0.03 0.03 0.04 0.04 0.05 0.04 0.04 0.04 0.04 0.03 0.03 0.02 0.02 0.02 0.03 0.02 0.02 0.03 0.02 0.02 0.02 0.02 0.02 0.02 0.02 0.01 0.01 0.01 0.01 0.02 0.02 0.02 0.03 0.04 0.05
0.01 0.01 0.01 0.01 0.02 0.03 0.03 0.03 0.03 0.03 0.04 0.04 0.04 0.03 0.04 0.05 0.04 0.03 0.03 0.02 0.03 0.03 0.03 0.02 0.02 0.03 0.02 0.03 0.03 0.02 0.02 0.02 0.02 0.01 0.01 0.01 0.01 0.01 0.02 0.02 0.02 0.03 0.03
0.01 0.01 0.01 0.01 0.02 0.03 0.03 0.03 0.02 0.03 0.04 0.04 0.03 0.02 0.03 0.04 0.03 0.04 0.03 0.02 0.02 0.03 0.02 0.02 0.02 0.02 0.03 0.03 0.03 0.03 0.03 0.03 0.02 0.02 0.02 0.01 0.01 0.02 0.02 0.02 0.02 0.03 0.03
0.01 0.01 0.02 0.03 0.03 0.04 0.03 0.03 0.02 0.02 0.02 0.02 0.02 0.03 0.03 0.03 0.03 0.03 0.03 0.03 0.02 0.03 0.03 0.02 0.02 0.02 0.02 0.03 0.03 0.03 0.03 0.02 0.02 0.02 0.02 0.02 0.02 0.02 0.02 0.02 0.03 0.03 0.03
0.02 0.02 0.02 0.02 0.03 0.03 0.02 0.02 0.01 0.01 0.01 0.01 0.01 0.02 0.02 0.02 0.02 0.02 0.02 0.02 0.02 0.02 0.02 0.02 0.02 0.02 0.02 0.02 0.02 0.02 0.02 0.03 0.03 0.03 0.03 0.02 0.02 0.02 0.03 0.03 0.03 0.03 0.03
0.02 0.02 0.02 0.02 0.02 0.02 0.01 0.01 0.01 0.01 0.01 0.00 0.01 0.01 0.01 0.01 0.01 0.01 0.01 0.02 0.02 0.03 0.03 0.03 0.03 0.02 0.02 0.02 0.02 0.01 0.02 0.02 0.03 0.04 0.04 0.02 0.01 0.02 0.02 0.03 0.03 0.03 0.03
0.02 0.02 0.02 0.01 0.01 0.01 0.01 0.01 0.01 0.01 0.01 0.01 0.01 0.00 0.00 0.00 0.01 0.01 0.02 0.02 0.03 0.04 0.05 0.06 0.06 0.07 0.06 0.04 0.03 0.02 0.02 0.02 0.02 0.03 0.02 0.01 0.01 0.02 0.02 0.03 0.03 0.03 0.03
0.02 0.02 0.02 0.01 0.01 0.01 0.01 0.01 0.01 0.01 0.01 0.02 0.01 0.01 0.00 0.00 0.00 0.01 0.01 0.02 0.03 0.02 0.02 0.03 0.03 0.04 0.04 0.03 0.03 0.03 0.02 0.02 0.02 0.02 0.02 0.02 0.02 0.02 0.02 0.02 0.02 0.03 0.03
0.03 0.04 0.02 0.01 0.01 0.01 0.01 0.01 0.01 0.01 0.02 0.02 0.02 0.01 0.01 0.00 0.01 0.01 0.01 0.02 0.02 0.02 0.02 0.02 0.02 0.03 0.02 0.02 0.01 0.01 0.01 0.01 0.01 0.01 0.01 0.01 0.01 0.01 0.01 0.01 0.02 0.02 0.03
0.04 0.04 0.03 0.02 0.02 0.01 0.01 0.01 0.01 0.01 0.01 0.02 0.02 0.01 0.01 0.01 0.02 0.02 0.02 0.02 0.01 0.02 0.02 0.02 0.02 0.02 0.03 0.02 0.01 0.01 0.01 0.01 0.01 0.01 0.01 0.01 0.01 0.01 0.01 0.01 0.02 0.02 0.02
0.05 0.05 0.04 0.03 0.02 0.02 0.01 0.01 0.01 0.01 0.01 0.01 0.01 0.01 0.02 0.02 0.03 0.03 0.02 0.02 0.02 0.02 0.02 0.03 0.03 0.03 0.04 0.03 0.02 0.01 0.01 0.01 0.01 0.01 0.01 0.01 0.01 0.00 0.00 0.01 0.01 0.02 0.03
0.03 0.03 0.03 0.03 0.02 0.01 0.01 0.01 0.01 0.01 0.01 0.01 0.01 0.02 0.02 0.03 0.03 0.03 0.02 0.02 0.02 0.02 0.02 0.02 0.03 0.03 0.05 0.04 0.02 0.01 0.01 0.01 0.01 0.01 0.01 0.01 0.01 0.01 0.01 0.01 0.01 0.01 0.02
0.02 0.02 0.03 0.03 0.03 0.02 0.01 0.01 0.01 0.01 0.01 0.01 0.02 0.02 0.03 0.03 0.03 0.03 0.02 0.02 0.02 0.02 0.02 0.03 0.04 0.04 0.04 0.03 0.01 0.01 0.01 0.01 0.01 0.01 0.01 0.01 0.02 0.01 0.01 0.01 0.01 0.01 0.02
0.01 0.02 0.02 0.03 0.04 0.03 0.02 0.02 0.02 0.02 0.03 0.03 0.03 0.04 0.04 0.04 0.04 0.03 0.03 0.03 0.03 0.03 0.03 0.04 0.04 0.04 0.02 0.01 0.01 0.01 0.01 0.01 0.01 0.01 0.01 0.01 0.01 0.01 0.01 0.01 0.02 0.02 0.02
0.01 0.02 0.03 0.03 0.04 0.04 0.03 0.02 0.02 0.03 0.03 0.03 0.03 0.02 0.02 0.01 0.01 0.01 0.02 0.02 0.02 0.03 0.04 0.04 0.05 0.05 0.02 0.01 0.01 0.01 0.01 0.01 0.01 0.01 0.01 0.01 0.02 0.02 0.02 0.02 0.02 0.02 0.03
0.01 0.01 0.02 0.03 0.03 0.03 0.03 0.02 0.01 0.01 0.02 0.01 0.01 0.01 0.01 0.01 0.00 0.00 0.00 0.00 0.00 0.01 0.02 0.03 0.04 0.03 0.02 0.02 0.01 0.01 0.01 0.01 0.01 0.01 0.02 0.02 0.02 0.02 0.02 0.02 0.03 0.03 0.03
MSLP
1008.26 1008.84 1009.42 1009.94 1010.37 1010.70 1010.95 1011.14 1011.30 1011.44 1011.59 1011.75 1011.92 1012.09 1012.25 1012.41 1012.57 1012.73 1012.91 1013.12 1013.36 1013.63 1013.93 1014.25 1014.59 1014.93 1015.27 1015.62 1015.97 1016.35 1016.73 1017.14 1017.55 1017.95 1018.32 1018.66 1018.93 1019.15 1019.30 1019.41 1019.48 1019.53 1019.57
1008.16 1008.82 1009.46 1010.02 1010.48 1010.83 1011.09 1011.29 1011.45 1011.63 1011.82 1012.03 1012.26 1012.49 1012.70 1012.88 1013.04 1013.19 1013.33 1013.48 1013.66 1013.88 1014.13 1014.42 1014.73 1015.06 1015.38 1015.71 1016.05 1016.39 1016.74 1017.10 1017.48 1017.85 1018.21 1018.55 1018.85 1019.11 1019.31 1019.47 1019.58 1019.68 1019.75
1007.91 1008.66 1009.39 1010.03 1010.54 1010.93 1011.21 1011.42 1011.61 1011.80 1012.03 1012.29 1012.56 1012.84 1013.09 1013.30 1013.47 1013.60 1013.72 1013.84 1013.98 1014.16 1014.38 1014.64 1014.94 1015.24 1015.56 1015.87 1016.17 1016.48 1016.79 1017.10 1017.43 1017.77 1018.11 1018.44 1018.75 1019.03 1019.26 1019.46 1019.61 1019.73 1019.82
1007.51 1008.38 1009.21 1009.94 1010.53 1010.97 1011.29 1011.53 1011.74 1011.96 1012.22 1012.51 1012.83 1013.14 1013.44 1013.68 1013.87 1014.01 1014.12 1014.22 1014.34 1014.50 1014.71 1014.96 1015.25 1015.55 1015.86 1016.16 1016.44 1016.71 1016.98 1017.24 1017.51 1017.80 1018.10 1018.40 1018.69 1018.97 1019.22 1019.42 1019.59 1019.72 1019.82
1007.05 1008.01 1008.94 1009.77 1010.44 1010.95 1011.32 1011.60 1011.84 1012.10 1012.38 1012.71 1013.06 1013.42 1013.75 1014.03 1014.25 1014.41 1014.53 1014.64 1014.76 1014.93 1015.13 1015.39 1015.69 1016.00 1016.32 1016.62 1016.89 1017.13 1017.35 1017.56 1017.77 1018.00 1018.23 1018.48 1018.74 1018.98 1019.21 1019.41 1019.57 1019.69 1019.78
1006.61 1007.65 1008.66 1009.57 1010.31 1010.88 1011.31 1011.63 1011.91 1012.19 1012.52 1012.88 1013.28 1013.68 1014.06 1014.38 1014.64 1014.83 1014.98 1015.10 1015.24 1015.42 1015.64 1015.92 1016.24 1016.57 1016.90 1017.21 1017.48 1017.71 1017.89 1018.06 1018.21 1018.36 1018.52 1018.70 1018.89 1019.08 1019.27 1019.43 1019.57 1019.68 1019.76
1006.31 1007.39 1008.45 1009.40 1010.19 1010.80 1011.27 1011.63 1011.95 1012.27 1012.63 1013.04 1013.48 1013.93 1014.36 1014.73 1015.03 1015.26 1015.45 1015.60 1015.77 1015.96 1016.21 1016.50 1016.84 1017.20 1017.55 1017.87 1018.15 1018.37 1018.54 1018.66 1018.75 1018.84 1018.93 1019.03 1019.14 1019.27 1019.40 1019.52 1019.63 1019.72 1019.79
1006.25 1007.31 1008.36 1009.31 1010.11 1010.74 1011.23 1011.62 1011.97 1012.33 1012.73 1013.18 1013.67 1014.17 1014.65 1015.08 1015.43 1015.71 1015.93 1016.12 1016.30 1016.51 1016.77 1017.08 1017.44 1017.81 1018.18 1018.52 1018.81 1019.03 1019.19 1019.29 1019.34 1019.37 1019.40 1019.43 1019.47 1019.54 1019.61 1019.69 1019.76 1019.83 1019.88
1006.43 1007.43 1008.43 1009.34 1010.11 1010.72 1011.21 1011.61 1011.98 1012.37 1012.81 1013.30 1013.84 1014.40 1014.94 1015.42 1015.82 1016.15 1016.41 1016.62 1016.82 1017.04 1017.30 1017.61 1017.96 1018.34 1018.72 1019.07 1019.37 1019.61 1019.77 1019.86 1019.90 1019.90 1019.88 1019.87 1019.85 1019.86 1019.89 1019.92 1019.97 1020.01 1020.05
1006.82 1007.72 1008.62 1009.45 1010.16 1010.73 1011.20 1011.59 1011.98 1012.39 1012.86 1013.40 1013.99 1014.60 1015.19 1015.73 1016.19 1016.56 1016.85 1017.09 1017.30 1017.52 1017.77 1018.06 1018.40 1018.76 1019.14 1019.49 1019.80 1020.06 1020.24 1020.35 1020.39 1020.39 1020.36 1020.31 1020.27 1020.24 1020.22 1020.23 1020.24 1020.26 1020.27
1007.30 1008.09 1008.87 1009.59 1010.22 1010.74 1011.17 1011.56 1011.95 1012.38 1012.89 1013.46 1014.10 1014.76 1015.40 1015.99 1016.50 1016.92 1017.25 1017.52 1017.74 1017.95 1018.18 1018.44 1018.75 1019.09 1019.44 1019.79 1020.11 1020.38 1020.59 1020.73 1020.80 1020.83 1020.81 1020.76 1020.71 1020.66 1020.61 1020.59 1020.57 1020.56 1020.55
1007.75 1008.41 1009.07 1009.69 1010.23 1010.69 1011.09 1011.47 1011.87 1012.33 1012.86 1013.47 1014.15 1014.85 1015.54 1016.19 1016.75 1017.22 1017.59 1017.89 1018.12 1018.34 1018.55 1018.78 1019.05 1019.36 1019.68 1020.01 1020.33 1020.62 1020.86 1021.04 1021.16 1021.22 1021.24 1021.21 1021.16 1021.10 1021.04 1020.98 1020.94 1020.89 1020.84
1008.03 1008.58 1009.14 1009.67 1010.14 1010.56 1010.94 1011.33 1011.74 1012.22 1012.78 1013.43 1014.13 1014.87 1015.61 1016.30 1016.91 1017.44 1017.86 1018.20 1018.47 1018.69 1018.90 1019.11 1019.35 1019.62 1019.91 1020.22 1020.53 1020.83 1021.09 1021.31 1021.48 1021.59 1021.64 1021.65 1021.61 1021.55 1021.48 1021.39 1021.31 1021.22 1021.13
1008.08 1008.54 1009.02 1009.48 1009.91 1010.32 1010.71 1011.11 1011.56 1012.07 1012.65 1013.32 1014.05 1014.82 1015.59 1016.32 1016.99 1017.57 1018.06 1018.45 1018.77 1019.02 1019.24 1019.45 1019.67 1019.90 1020.16 1020.44 1020.73 1021.03 1021.31 1021.56 1021.77 1021.92 1022.02 1022.05 1022.04 1021.98 1021.89 1021.78 1021.65 1021.52 1021.38
1007.88 1008.27 1008.70 1009.13 1009.56 1009.97 1010.39 1010.83 1011.32 1011.87 1012.48 1013.17 1013.92 1014.70 1015.50 1016.26 1016.98 1017.62 1018.17 1018.64 1019.01 1019.32 1019.57 1019.79 1020.00 1020.21 1020.44 1020.69 1020.95 1021.23 1021.51 1021.78 1022.01 1022.20 1022.33 1022.40 1022.40 1022.34 1022.24 1022.10 1021.94 1021.76 1021.58
1007.49 1007.83 1008.22 1008.65 1009.09 1009.54 1010.01 1010.51 1011.05 1011.64 1012.29 1013.00 1013.76 1014.55 1015.35 1016.14 1016.89 1017.59 1018.20 1018.74 1019.19 1019.56 1019.85 1020.10 1020.32 1020.52 1020.72 1020.93 1021.17 1021.42 1021.68 1021.94 1022.19 1022.39 1022.55 1022.63 1022.65 1022.60 1022.49 1022.33 1022.14 1021.93 1021.72
1006.99 1007.29 1007.66 1008.08 1008.55 1009.06 1009.59 1010.16 1010.76 1011.41 1012.09 1012.82 1013.58 1014.37 1015.17 1015.97 1016.74 1017.48 1018.15 1018.75 1019.27 1019.70 1020.06 1020.34 1020.57 1020.77 1020.95 1021.13 1021.33 1021.55 1021.78 1022.03 1022.26 1022.47 1022.64 1022.74 1022.78 1022.74 1022.62 1022.45 1022.25 1022.02 1021.78
1006.46 1006.71 1007.05 1007.48 1007.98 1008.54 1009.15 1009.79 1010.46 1011.16 1011.89 1012.63 1013.39 1014.18 1014.97 1015.76 1016.54 1017.30 1018.01 1018.66 1019.23 1019.73 1020.14 1020.47 1020.72 1020.92 1021.09 1021.25 1021.41 1021.58 1021.78 1022.00 1022.22 1022.42 1022.59 1022.71 1022.76 1022.73 1022.63 1022.47 1022.26 1022.02 1021.77
1005.97 1006.15 1006.45 1006.87 1007.39 1008.00 1008.67 1009.39 1010.14 1010.90 1011.67 1012.44 1013.21 1013.98 1014.76 1015.54 1016.31 1017.06 1017.79 1018.47 1019.08 1019.63 1020.08 1020.44 1020.73 1020.94 1021.11 1021.25 1021.38 1021.52 1021.68 1021.86 1022.06 1022.25 1022.42 1022.55 1022.61 1022.61 1022.53 1022.38 1022.18 1021.95 1021.70
1005.53 1005.62 1005.87 1006.26 1006.79 1007.43 1008.16 1008.95 1009.77 1010.60 1011.42 1012.22 1013.01 1013.78 1014.54 1015.30 1016.05 1016.79 1017.50 1018.19 1018.82 1019.39 1019.88 1020.28 1020.59 1020.83 1021.00 1021.13 1021.25 1021.37 1021.50 1021.66 1021.83 1022.01 1022.17 1022.30 1022.38 1022.40 1022.34 1022.22 1022.04 1021.82 1021.58
1005.10 1005.11 1005.29 1005.65 1006.17 1006.83 1007.60 1008.45 1009.33 1010.23 1011.11 1011.96 1012.78 1013.56 1014.31 1015.04 1015.76 1016.47 1017.17 1017.84 1018.47 1019.05 1019.56 1019.99 1020.34 1020.60 1020.80 1020.94 1021.06 1021.17 1021.29 1021.42 1021.57 1021.73 1021.88 1022.01 1022.10 1022.13 1022.10 1022.00 1021.85 1021.65 1021.42
1004.64 1004.58 1004.70 1005.01 1005.51 1006.18 1006.98 1007.88 1008.83 1009.80 1010.74 1011.65 1012.50 1013.30 1014.05 1014.76 1015.45 1016.12 1016.79 1017.43 1018.05 1018.63 1019.16 1019.62 1019.99 1020.30 1020.53 1020.71 1020.84 1020.96 1021.07 1021.19 1021.32 1021.46 1021.59 1021.71 1021.80 1021.84 1021.82 1021.74 1021.61 1021.42 1021.20
1004.12 1004.01 1004.09 1004.37 1004.86 1005.52 1006.34 1007.27 1008.28 1009.30 1010.30 1011.26 1012.15 1012.98 1013.73 1014.44 1015.10 1015.74 1016.37 1016.99 1017.59 1018.16 1018.70 1019.18 1019.60 1019.95 1020.23 1020.45 1020.62 1020.76 1020.87 1020.98 1021.09 1021.21 1021.32 1021.41 1021.49 1021.52 1021.50 1021.44 1021.32 1021.15 1020.94
1003.53 1003.43 1003.50 1003.77 1004.23 1004.90 1005.72 1006.67 1007.71 1008.77 1009.82 1010.82 1011.75 1012.60 1013.37 1014.07 1014.71 1015.32 1015.92 1016.51 1017.09 1017.66 1018.21 1018.72 1019.19 1019.59 1019.93 1020.20 1020.41 1020.57 1020.69 1020.79 1020.88 1020.96 1021.04 1021.10 1021.14 1021.16 1021.14 1021.08 1020.97 1020.82 1020.64
1002.91 1002.86 1002.96 1003.24 1003.71 1004.36 1005.18 1006.13 1007.17 1008.25 1009.32 1010.35 1011.30 1012.17 1012.94 1013.63 1014.26 1014.86 1015.43 1016.00 1016.56 1017.14 1017.70 1018.25 1018.75 1019.21 1019.60 1019.92 1020.17 1020.36 1020.49 1020.58 1020.64 1020.68 1020.72 1020.74 1020.75 1020.74 1020.71 1020.65 1020.56 1020.44 1020.28
1002.30 1002.36 1002.54 1002.86 1003.34 1003.99 1004.78 1005.71 1006.73 1007.79 1008.85 1009.86 1010.81 1011.68 1012.45 1013.13 1013.75 1014.33 1014.89 1015.45 1016.01 1016.59 1017.17 1017.75 1018.29 1018.79 1019.23 1019.59 1019.87 1020.07 1020.21 1020.28 1020.31 1020.32 1020.31 1020.29 1020.26 1020.23 1020.20 1020.15 1020.08 1020.00 1019.88
Thickness
5767 5765 5762 5759 5756 5752 5748 5744 5740 5736 5734 5732 5730 5727 5725 5725 5724 5722 5720 5719 5718 5717 5715 5715 5713 5713 5712 5711 5710 5709 5707 5706 5706 5705 5705 5707 5708 5707 5706 5705 5705 5704 5702
5761 5759 5757 5755 5751 5748 5745 5741 5736 5734 5731 5729 5727 5725 5723 5722 5721 5719 5717 5716 5715 5713 5713 5711 5711 5710 5709 5707 5706 5705 5705 5704 5703 5702 5700 5699 5701 5701 5704 5702 5701 5701 5700
5756 5754 5752 5750 5748 5745 5742 5739 5735 5731 5728 5726 5724 5721 5718 5717 5716 5714 5714 5713 5712 5710 5709 5708 5708 5707 5707 5705 5703 5702 5699 5698 5699 5701 5699 5696 5696 5698 5700 5699 5699 5697 5697
5755 5753 5750 5748 5746 5744 5741 5737 5733 5729 5726 5724 5722 5718 5716 5713 5713 5712 5712 5710 5708 5707 5706 5705 5704 5703 5704 5702 5701 5700 5698 5696 5695 5696 5696 5696 5696 5691 5692 5694 5696 5695 5693
5753 5751 5749 5747 5745 5742 5738 5734 5730 5726 5723 5721 5719 5716 5715 5713 5712 5710 5707 5705 5705 5704 5703 5701 5700 5699 5699 5698 5697 5695 5694 5694 5693 5693 5693 5692 5690 5690 5687 5687 5689 5691 5692
5750 5748 5747 5744 5740 5738 5734 5731 5726 5722 5720 5718 5716 5713 5711 5710 5708 5706 5704 5703 5702 5701 5699 5698 5696 5695 5695 5694 5693 5691 5690 5690 5690 5690 5690 5689 5688 5687 5686 5684 5683 5684 5687
5746 5744 5742 5739 5735 5732 5729 5726 5722 5717 5716 5714 5712 5710 5708 5706 5704 5703 5702 5701 5700 5698 5695 5695 5692 5692 5691 5690 5689 5687 5688 5687 5686 5685 5686 5687 5687 5686 5684 5681 5679 5678 5681
5742 5740 5738 5734 5730 5727 5724 5721 5717 5714 5712 5710 5708 5707 5706 5706 5705 5701 5701 5699 5698 5696 5693 5691 5690 5689 5688 5687 5686 5686 5685 5684 5682 5683 5682 5682 5684 5683 5681 5678 5674 5673 5676
5738 5736 5733 5730 5726 5723 5720 5718 5714 5711 5709 5707 5706 5704 5703 5702 5701 5699 5697 5696 5694 5693 5690 5689 5687 5686 5685 5684 5682 5682 5681 5680 5680 5680 5678 5678 5679 5679 5678 5675 5673 5669 5667
5732 5730 5727 5725 5722 5719 5716 5713 5711 5708 5706 5706 5704 5703 5701 5699 5697 5696 5694 5693 5691 5689 5687 5685 5684 5682 5681 5680 5678 5679 5678 5676 5675 5674 5673 5672 5674 5674 5673 5672 5671 5669 5666
5728 5725 5723 5721 5718 5715 5712 5708 5706 5704 5703 5702 5700 5698 5696 5695 5693 5692 5690 5689 5687 5685 5683 5682 5680 5679 5677 5676 5674 5675 5674 5672 5671 5670 5669 5668 5668 5669 5669 5669 5667 5666 5664
5723 5721 5717 5714 5711 5709 5707 5704 5703 5701 5698 5696 5694 5693 5692 5690 5689 5688 5686 5685 5683 5682 5680 5678 5676 5675 5674 5672 5671 5670 5669 5668 5667 5667 5666 5665 5665 5663 5663 5663 5663 5662 5660
5716 5713 5710 5707 5705 5704 5702 5700 5697 5695 5693 5691 5689 5688 5686 5685 5684 5683 5681 5680 5679 5677 5675 5673 5672 5671 5670 5669 5668 5666 5665 5664 5664 5663 5662 5662 5661 5659 5660 5658 5659 5659 5658
5708 5705 5702 5699 5698 5697 5695 5693 5691 5689 5688 5686 5684 5682 5680 5680 5679 5677 5676 5675 5674 5672 5671 5669 5668 5667 5666 5665 5664 5662 5661 5660 5660 5659 5658 5658 5657 5656 5655 5655 5654 5654 5653
5701 5698 5695 5692 5691 5689 5688 5686 5685 5684 5682 5680 5678 5676 5675 5674 5673 5672 5670 5670 5669 5668 5666 5665 5663 5662 5661 5660 5659 5658 5657 5656 5655 5654 5654 5654 5653 5651 5650 5652 5651 5650 5649
5695 5693 5689 5686 5685 5683 5681 5680 5679 5678 5676 5674 5673 5671 5670 5668 5667 5666 5665 5664 5663 5662 5661 5659 5658 5657 5657 5654 5651 5650 5651 5651 5650 5650 5649 5649 5648 5646 5644 5643 5642 5641 5642
5689 5686 5683 5681 5679 5678 5677 5675 5674 5673 5671 5669 5668 5666 5664 5663 5661 5661 5659 5658 5656 5656 5655 5654 5653 5652 5650 5646 5644 5642 5643 5645 5645 5645 5644 5646 5647 5644 5644 5640 5637 5636 5634
5681 5680 5679 5676 5675 5674 5673 5671 5670 5668 5666 5664 5662 5661 5659 5658 5656 5655 5653 5652 5651 5650 5649 5649 5649 5647 5645 5641 5638 5636 5637 5639 5640 5640 5640 5640 5640 5640 5638 5637 5637 5636 5634
5674 5673 5673 5672 5670 5669 5667 5666 5664 5662 5660 5658 5656 5655 5654 5652 5651 5649 5648 5647 5646 5646 5645 5645 5644 5642 5640 5636 5633 5629 5633 5635 5636 5636 5636 5635 5635 5632 5629 5630 5631 5631 5631
5667 5667 5668 5667 5664 5662 5661 5659 5658 5656 5654 5653 5652 5650 5648 5647 5645 5644 5643 5642 5642 5642 5642 5641 5640 5638 5637 5632 5629 5625 5630 5631 5632 5632 5632 5629 5629 5626 5623 5625 5626 5626 5626
5661 5662 5661 5660 5658 5657 5655 5653 5652 5650 5649 5648 5646 5644 5643 5641 5640 5638 5638 5637 5637 5637 5637 5636 5636 5635 5633 5629 5626 5622 5625 5627 5627 5629 5629 5628 5623 5619 5618 5618 5620 5620 5619
5653 5654 5654 5653 5652 5651 5649 5647 5646 5645 5644 5642 5640 5638 5637 5636 5635 5633 5632 5632 5631 5631 5631 5632 5631 5632 5630 5627 5624 5620 5618 5618 5621 5623 5624 5623 5616 5613 5612 5612 5613 5612 5611
5645 5646 5647 5646 5646 5645 5644 5642 5640 5639 5637 5635 5633 5632 5631 5630 5630 5628 5627 5628 5628 5628 5629 5629 5628 5628 5628 5625 5620 5616 5614 5612 5613 5617 5615 5612 5609 5607 5608 5608 5607 5606 5609
5639 5639 5640 5639 5638 5638 5638 5637 5635 5633 5631 5629 5628 5627 5626 5626 5625 5625 5626 5626 5625 5624 5624 5624 5624 5624 5623 5621 5617 5614 5611 5607 5607 5608 5608 5605 5604 5604 5605 5606 5606 5607 5609
5632 5633 5633 5633 5632 5631 5631 5630 5629 5627 5625 5623 5623 5622 5622 5622 5621 5621 5621 5621 5621 5620 5617 5618 5618 5618 5617 5615 5610 5609 5608 5607 5606 5602 5603 5604 5605 5606 5607 5608 5609 5608 5607
5625 5625 5626 5626 5626 5626 5624 5624 5623 5621 5619 5618 5618 5619 5619 5619 5618 5618 5617 5614 5613 5611 5609 5608 5609 5612 5610 5606 5603 5600 5598 5596 5595 5595 5600 5601 5603 5605 5607 5608 5608 5607 5606